GFSNW_925_thetae_132.txt.gz
Theta_e
307 304 303 307 304 304 305 307 315 306 306 311 308 312 309 307 309 309 310 309 309 311 311 312 312 311 310 309 310 312 310 311 316 312 309 308 311 313 312 311 310 310 310 310
309 306 304 307 305 305 306 310 310 304 302 315 312 309 309 308 310 310 311 311 310 309 311 312 311 310 309 308 310 311 310 309 310 306 309 309 312 312 312 308 308 311 308 309
309 308 305 306 307 305 304 306 317 310 307 304 309 310 310 311 308 309 309 309 309 310 311 309 311 311 309 308 309 309 309 309 308 308 305 310 312 312 311 311 314 309 309 308
309 308 307 305 305 305 303 305 308 304 314 310 308 308 308 310 311 309 308 310 309 310 311 311 311 310 310 309 311 309 311 311 308 308 307 306 307 308 311 312 311 310 309 308
309 309 308 307 305 302 303 309 308 303 306 305 308 307 309 309 309 309 309 309 309 309 309 309 310 310 311 311 311 311 309 312 309 311 309 308 309 309 308 308 310 310 310 310
308 309 309 308 308 305 304 300 301 306 303 305 305 308 309 309 309 307 307 308 309 309 309 307 306 306 306 307 311 312 311 312 311 311 307 307 308 307 308 308 307 308 310 310
308 308 308 308 308 308 305 302 301 305 308 305 305 306 307 308 308 308 307 307 309 306 304 303 304 304 305 307 307 308 310 311 311 313 308 311 304 304 306 308 308 307 307 307
307 307 307 308 308 307 307 302 301 306 309 304 303 304 306 305 304 307 307 306 305 303 305 307 306 302 305 304 303 306 306 310 310 311 309 308 305 303 305 307 307 305 307 306
306 306 307 307 307 307 307 304 301 302 311 310 302 304 304 307 305 303 305 304 302 303 306 307 306 306 304 306 306 303 305 306 309 306 309 311 305 304 303 304 308 304 304 305
306 306 306 306 306 306 306 305 304 302 310 306 302 307 307 302 303 305 303 306 306 303 308 307 306 307 303 305 306 308 307 308 310 309 310 309 306 304 303 310 308 304 303 303
307 307 306 306 306 306 306 305 304 304 307 306 301 301 303 303 303 308 303 306 305 306 308 307 307 307 305 304 303 307 308 309 309 309 310 312 304 304 307 305 303 302 301 301
307 307 306 305 305 305 305 305 304 304 303 304 299 299 300 300 300 303 302 304 304 306 306 305 305 307 305 306 309 302 307 309 310 310 310 305 303 304 302 301 300 300 299 299
307 307 306 305 305 304 303 304 303 303 302 303 301 301 299 299 299 300 305 301 301 303 301 305 305 308 306 309 307 305 303 303 306 305 305 305 305 303 301 299 299 299 298 298
308 307 306 305 305 303 303 303 303 302 300 304 303 297 297 296 297 298 299 299 299 300 302 306 307 307 304 306 305 305 304 302 304 305 304 303 302 301 299 298 297 297 297 297
309 306 305 305 304 302 303 302 302 302 303 305 304 297 295 296 296 297 298 299 300 302 304 305 307 304 304 303 302 305 303 306 306 308 303 304 304 300 297 297 296 296 296 296
308 305 304 303 302 302 302 303 300 301 301 302 305 296 295 295 295 295 296 297 298 300 302 303 301 298 303 306 306 304 302 301 302 304 301 300 299 298 296 296 295 295 295 294
305 304 303 302 302 302 301 302 299 299 299 302 304 303 295 294 294 294 296 295 297 299 301 301 301 301 302 303 306 303 300 300 299 298 298 297 296 296 295 294 294 293 293 293
303 302 301 302 301 300 300 300 300 299 299 299 303 303 300 293 296 298 293 297 297 298 299 298 301 299 300 304 303 301 300 297 295 295 295 295 295 294 294 293 293 293 293 293
300 300 301 301 299 298 297 298 298 298 299 300 301 302 303 294 295 295 295 295 299 296 300 300 299 301 302 303 301 300 297 296 296 296 295 295 294 295 294 294 293 293 293 293
299 298 297 297 296 297 296 297 297 299 298 297 299 297 301 296 295 297 297 296 298 301 299 298 301 301 300 299 299 298 298 297 295 293 296 295 294 294 294 293 293 293 292 292
296 296 296 296 296 297 297 297 297 298 299 297 298 298 299 294 300 300 296 300 299 301 299 300 300 300 298 295 295 297 295 295 294 294 294 294 293 293 293 293 292 292 292 292
295 295 295 295 296 296 296 295 295 296 297 297 298 297 297 296 295 300 298 300 298 301 296 299 299 298 295 294 294 296 294 294 293 293 292 292 292 292 292 292 291 291 290 290
296 294 294 295 293 296 294 293 295 297 296 295 295 297 296 295 295 299 299 300 300 296 298 298 297 295 295 295 294 294 293 292 292 291 291 290 291 290 290 290 290 289 289 289
295 295 295 294 292 292 293 292 294 294 295 295 295 296 296 295 297 299 299 298 295 298 298 297 297 295 294 293 293 292 292 292 291 290 289 289 289 290 290 289 288 288 288 289
294 292 293 290 290 287 288 288 290 291 292 294 294 294 295 295 297 296 299 297 296 297 297 296 295 293 294 293 292 292 291 290 289 288 289 288 288 288 289 289 289 289 289 289
291 289 289 288 290 288 289 292 292 291 293 294 295 296 296 297 296 297 297 298 296 296 296 295 292 292 292 292 292 291 291 290 290 289 289 290 289 289 289 289 288 288 289 289
290 292 291 289 288 291 290 291 292 290 295 298 296 297 296 291 296 297 297 296 296 295 294 292 292 293 294 293 292 291 289 289 290 290 290 290 289 288 287 288 289 289 289 289

GFSNW_925_thetae_135.txt.gz
Theta_e
307 304 306 306 305 304 305 312 317 308 306 316 313 315 311 308 311 311 311 311 312 312 312 312 312 311 312 310 312 313 312 312 317 313 311 310 313 313 312 312 313 310 311 311
308 306 304 307 304 305 309 313 313 307 306 319 314 311 310 311 312 312 312 312 312 311 312 313 312 312 311 310 312 312 312 311 312 310 310 311 313 311 312 312 310 311 309 311
309 307 306 305 306 306 306 311 319 313 310 311 311 311 312 313 311 311 311 311 311 312 312 311 312 313 311 310 311 309 309 310 311 313 309 312 312 312 312 312 314 311 310 310
309 308 307 306 304 304 306 310 312 309 316 312 311 311 311 312 313 311 311 311 311 312 312 312 312 312 312 311 311 311 311 312 311 310 309 308 307 308 311 313 312 310 309 310
308 309 308 307 305 303 308 312 312 309 310 309 310 309 311 311 310 311 311 311 311 311 310 310 311 311 311 312 312 312 311 312 311 313 310 310 310 309 309 309 311 311 310 310
308 308 308 308 308 305 310 305 305 310 306 309 309 310 310 310 311 310 309 310 310 311 311 309 309 309 309 310 312 313 312 313 313 311 309 309 309 309 309 309 309 309 310 310
307 308 308 308 308 307 307 305 306 311 312 309 308 309 310 310 310 309 309 309 310 308 307 306 307 307 308 309 310 311 312 312 312 314 311 312 307 306 308 309 309 309 308 308
307 307 307 307 308 307 306 303 307 312 314 310 307 308 309 308 308 309 308 308 307 307 307 308 308 306 306 307 307 308 310 311 311 313 311 311 309 306 306 309 307 307 308 307
307 306 307 307 307 307 307 305 303 308 315 314 306 307 307 311 309 306 307 306 305 306 308 308 310 310 307 309 307 305 308 309 310 308 310 313 306 306 305 306 310 305 305 306
306 307 306 306 306 306 306 305 305 307 313 309 306 310 311 307 307 310 306 308 307 306 309 310 311 311 305 308 309 309 309 309 311 311 311 311 308 306 305 310 309 305 304 304
307 307 307 306 306 305 305 305 305 306 310 309 304 304 307 306 307 312 307 309 308 309 311 310 310 308 307 306 307 309 310 311 311 311 313 314 306 305 308 307 305 303 302 302
307 307 307 306 305 305 304 307 304 304 306 307 301 300 300 301 302 306 306 308 307 309 310 308 308 308 307 308 312 305 309 310 311 311 313 307 306 306 304 302 302 302 301 301
307 307 307 306 305 304 303 304 303 303 306 306 304 304 298 299 300 300 307 306 305 306 304 308 308 309 309 312 311 309 306 306 307 307 309 308 306 304 301 301 300 299 299 299
307 307 307 306 305 304 303 304 302 303 303 307 305 298 298 297 297 298 300 301 302 304 305 308 309 309 307 310 308 308 307 304 306 306 306 304 304 302 300 299 298 297 297 297
308 308 308 306 305 303 303 302 302 302 304 308 306 299 295 296 296 298 299 301 303 305 306 308 308 307 306 307 305 307 304 307 307 309 306 306 305 301 298 298 297 296 296 295
309 310 307 305 304 302 303 305 300 301 301 304 307 299 297 296 297 298 299 300 302 303 305 306 306 301 305 308 309 307 306 304 304 306 304 303 301 299 296 296 295 295 295 294
309 310 306 304 302 302 303 304 300 300 299 305 306 306 296 296 296 297 298 298 300 302 303 303 304 303 303 306 308 307 303 303 303 301 301 300 298 297 296 295 294 294 294 294
309 305 304 302 302 301 301 300 299 299 301 302 304 304 301 295 299 300 296 300 300 300 302 301 302 302 301 305 305 305 304 302 299 297 298 297 296 295 295 294 294 294 294 294
305 303 302 301 300 300 299 298 298 299 300 301 301 304 307 295 297 297 297 298 301 298 301 301 301 303 304 304 304 304 302 297 296 296 296 296 295 295 294 294 294 293 293 293
302 301 297 298 297 297 297 297 299 299 300 298 299 300 302 299 298 299 300 298 301 301 300 299 301 301 302 302 302 302 301 297 297 296 296 295 295 295 294 293 293 293 293 292
296 294 296 296 296 296 298 298 299 298 299 297 298 299 301 297 302 302 299 300 300 301 301 300 301 302 301 300 300 299 298 296 295 294 294 294 294 295 294 293 293 293 292 292
295 295 295 295 296 297 297 298 297 296 299 299 298 298 298 298 297 301 298 300 299 300 298 300 300 301 299 297 299 296 296 295 294 294 294 293 293 292 293 293 292 292 291 291
293 292 294 295 295 297 296 296 296 298 297 297 297 297 297 296 296 299 300 301 302 298 299 299 300 298 297 297 297 297 296 293 293 293 292 292 292 292 292 292 291 291 291 290
295 295 295 296 295 295 297 295 297 296 298 297 297 297 297 297 298 300 301 300 298 299 299 299 301 298 297 295 295 294 294 293 293 292 291 291 291 291 291 291 291 290 290 290
295 294 296 294 293 291 292 292 293 293 296 296 296 296 297 297 298 298 300 298 298 298 299 300 299 295 296 295 294 294 294 294 293 292 291 290 289 290 290 291 291 290 290 290
293 292 292 290 292 292 292 293 295 293 295 296 297 297 298 298 298 299 299 300 299 298 299 299 296 295 294 295 295 295 294 294 294 292 291 290 290 290 291 291 290 290 289 289
292 293 292 292 291 294 293 293 294 294 296 299 296 297 297 294 297 298 298 299 299 299 298 296 295 294 294 295 296 295 294 293 292 291 291 291 291 290 290 290 289 289 289 289

GFSNW_925_thetae_138.txt.gz
Theta_e
308 306 306 305 304 304 307 313 320 309 307 318 315 315 312 308 312 312 312 311 312 312 312 312 312 311 312 310 311 312 311 313 312 314 310 310 311 313 309 310 312 307 307 305
308 307 306 306 304 305 310 315 315 309 309 322 314 311 311 312 312 312 312 312 312 311 312 313 312 313 311 310 312 312 311 311 311 310 310 310 311 309 312 311 309 309 307 307
308 308 307 305 305 305 305 312 320 315 313 311 311 311 312 313 311 312 311 312 312 312 312 311 312 313 311 310 311 309 309 309 309 311 308 310 311 310 310 310 308 309 307 307
308 308 308 307 303 304 306 312 313 309 318 312 311 312 312 313 313 311 311 311 312 312 312 311 312 312 312 311 311 311 311 311 308 310 309 308 306 307 310 310 310 308 308 306
307 307 308 308 306 304 309 314 313 309 310 310 311 309 311 312 310 312 312 311 311 311 311 310 311 311 311 312 311 311 310 310 310 306 309 309 308 308 307 307 310 310 310 309
307 307 307 307 307 308 312 307 307 309 308 309 309 311 310 311 311 310 310 310 310 310 310 309 309 308 308 309 312 311 311 310 310 311 309 308 306 307 307 308 307 308 309 308
306 307 307 307 307 307 309 305 307 311 312 309 309 310 310 311 311 310 310 309 309 308 306 306 307 308 308 308 309 309 311 311 309 307 308 308 307 305 305 307 308 307 307 308
307 306 307 307 307 307 306 305 307 312 314 310 307 309 310 309 308 309 309 308 306 307 307 308 307 305 306 306 307 308 308 309 307 307 308 308 307 306 306 308 308 306 306 305
306 307 306 306 306 306 307 305 304 307 313 311 307 308 308 310 308 306 308 306 305 306 308 307 309 309 307 308 307 305 305 307 308 308 309 311 307 305 305 305 306 304 304 305
306 306 307 306 306 305 306 305 305 307 312 307 306 308 308 308 308 308 307 307 306 306 307 308 309 309 305 307 308 306 306 307 308 308 309 309 305 304 305 308 307 304 303 303
306 306 307 306 306 305 305 306 304 306 309 308 304 304 306 305 306 310 306 308 307 306 308 309 310 307 304 305 307 307 307 307 307 308 310 310 305 304 306 305 303 302 301 301
307 307 307 307 305 305 304 308 304 303 305 306 302 301 301 301 302 305 306 307 307 308 308 307 306 306 305 305 308 305 307 308 309 308 309 305 304 304 301 301 301 301 301 300
307 307 306 307 306 305 304 304 303 305 305 305 303 303 299 301 300 300 306 305 304 305 303 306 306 307 307 309 307 306 305 305 306 306 307 304 303 301 300 300 299 299 298 298
308 307 307 307 306 305 304 304 302 303 304 305 303 298 298 297 298 299 300 301 302 304 304 306 307 307 306 308 306 306 305 303 304 304 305 303 303 300 298 298 297 296 296 296
309 308 308 307 306 305 303 302 302 302 304 306 305 299 296 297 297 298 299 301 302 303 304 304 307 305 305 304 303 305 303 304 305 306 304 303 302 298 297 296 295 295 295 294
308 309 308 308 306 304 303 304 301 301 301 301 304 298 297 297 298 298 299 300 300 301 303 303 303 301 303 305 306 306 305 304 303 304 301 300 299 297 296 295 294 294 294 293
308 308 308 308 305 302 303 304 301 300 300 303 301 302 296 296 297 297 297 298 299 300 301 301 302 301 300 304 306 306 303 303 302 301 298 298 296 295 294 294 294 294 294 294
308 308 309 305 303 302 301 300 299 300 301 302 301 300 298 295 298 299 296 299 298 300 300 301 301 300 301 304 303 303 303 301 299 298 298 296 294 294 293 294 293 293 292 291
308 307 303 302 301 300 300 299 299 299 301 302 299 302 305 295 297 297 296 297 300 297 300 301 300 301 303 302 302 302 301 298 296 295 294 293 293 293 293 293 292 291 290 290
304 302 299 298 298 298 297 297 298 298 299 298 299 299 302 297 297 299 299 297 300 301 299 297 300 300 300 300 300 301 300 296 294 292 293 293 293 292 293 292 291 290 290 291
300 294 295 296 296 296 297 298 298 298 298 297 297 298 299 296 301 301 299 300 298 300 298 298 300 300 299 298 298 299 296 294 293 293 293 293 293 292 291 291 292 292 292 290
296 295 294 294 294 296 297 298 297 297 299 297 298 297 298 296 296 300 297 299 298 299 295 299 299 297 296 296 297 295 293 292 292 293 293 293 292 292 291 291 291 291 291 291
296 293 294 295 295 297 297 296 294 296 296 297 296 297 296 295 296 299 299 300 300 295 299 299 296 296 295 295 295 293 294 293 293 292 292 292 291 291 291 291 291 291 291 291
294 295 295 297 295 297 298 295 295 294 296 296 296 296 298 297 297 299 300 299 297 299 300 295 295 295 294 294 294 294 292 291 291 289 291 290 290 290 291 291 290 290 290 290
295 295 297 295 294 293 291 290 292 292 295 294 295 295 296 297 299 298 300 298 299 299 297 297 293 292 293 292 292 292 292 291 288 291 290 290 290 289 289 290 290 290 290 290
293 292 293 291 292 292 292 292 295 293 295 295 296 296 298 299 298 299 299 300 299 296 295 293 291 292 292 293 293 293 293 293 293 293 291 291 290 289 289 290 290 290 289 289
293 293 292 292 292 294 293 293 293 294 296 299 297 298 297 291 298 299 297 297 295 294 293 291 292 291 291 291 291 292 293 293 293 291 291 290 290 290 290 288 289 289 289 289

GFSNW_925_thetae_141.txt.gz
Theta_e
308 307 306 304 304 305 307 310 311 308 306 309 306 307 310 308 311 311 311 310 310 310 310 310 310 311 309 308 310 311 310 310 308 309 309 309 310 311 305 303 309 304 304 304
307 307 307 305 304 305 306 309 308 308 308 306 304 309 310 310 311 311 311 311 311 310 310 310 310 311 309 309 310 310 309 308 304 305 307 308 309 307 310 307 305 306 304 302
307 307 306 307 305 305 304 306 308 309 305 304 307 309 311 311 310 310 310 310 310 310 310 309 311 312 310 309 310 309 308 307 306 305 308 309 309 309 308 308 304 305 305 305
307 307 307 307 304 303 306 305 306 307 309 307 308 308 310 311 311 310 310 310 310 310 310 310 311 311 310 310 310 309 308 307 305 307 308 307 306 308 308 307 307 305 304 304
306 307 307 307 307 305 307 308 307 304 305 307 309 308 310 310 309 310 310 310 310 309 309 309 309 310 309 310 310 310 307 305 307 303 307 306 307 305 304 306 308 307 307 308
307 307 307 306 307 308 309 307 306 305 305 306 305 307 309 309 308 309 308 308 309 309 309 307 306 305 305 308 309 309 309 307 305 306 307 305 301 304 305 306 304 307 308 307
307 306 307 306 306 307 307 304 304 306 309 306 306 309 309 309 309 309 308 308 308 307 305 305 304 305 306 306 307 306 308 307 304 303 304 303 301 304 305 305 305 304 305 305
306 306 306 306 306 306 306 304 305 306 311 305 306 308 308 307 307 308 307 306 304 304 306 305 304 303 304 305 303 304 304 306 304 305 305 303 306 305 305 307 307 304 304 303
306 306 306 306 306 305 306 304 304 304 309 308 305 306 306 306 305 305 306 305 304 305 305 304 306 307 304 306 306 303 304 305 305 305 307 307 306 304 304 304 305 303 303 303
306 306 307 306 306 305 306 305 304 306 307 305 304 305 305 305 304 304 305 305 305 304 304 306 305 306 303 307 306 305 305 305 307 307 306 307 304 303 304 305 305 302 302 301
306 306 306 307 306 305 305 306 304 304 304 304 303 302 305 304 304 305 304 305 304 303 306 305 306 305 303 304 304 304 304 304 305 305 307 307 303 303 304 302 301 301 300 300
306 306 306 307 307 305 305 307 304 303 302 304 302 301 301 301 301 303 303 306 305 304 304 305 303 305 302 302 305 303 306 306 306 306 307 304 302 304 301 300 300 300 299 299
307 307 306 306 307 306 305 304 303 304 300 300 301 301 299 300 300 300 304 302 302 303 301 303 303 305 302 305 304 304 303 303 305 306 305 304 302 299 299 299 298 298 297 297
307 307 307 306 306 306 305 304 302 303 301 300 301 298 298 297 298 299 300 300 301 302 301 303 304 305 303 305 305 304 304 302 303 303 303 303 301 299 297 297 296 295 295 295
306 308 308 307 306 306 304 302 302 302 302 303 302 298 297 297 298 299 299 300 300 300 302 300 304 303 304 302 302 304 303 303 303 306 302 302 301 297 296 295 295 294 294 293
306 308 309 308 307 305 303 302 301 301 302 297 299 297 296 297 298 298 299 299 298 298 300 300 301 300 302 303 304 304 303 301 302 303 301 300 297 296 295 294 293 293 292 293
306 309 309 308 308 305 303 302 302 301 300 300 296 296 295 296 296 296 296 297 296 297 298 299 299 299 299 300 304 305 303 301 300 297 297 297 295 295 292 292 293 294 293 293
306 308 308 308 305 302 301 300 300 300 301 300 294 295 296 295 297 298 295 297 296 298 298 300 300 299 300 303 302 302 301 301 299 297 297 297 295 292 292 292 292 292 291 290
306 308 307 303 301 301 300 300 300 300 300 299 294 295 300 294 296 295 296 297 300 296 300 300 301 301 302 302 301 300 300 299 298 294 292 291 292 291 291 292 292 291 289 289
306 304 300 299 299 299 298 297 297 297 297 296 294 295 299 297 296 298 298 296 299 301 298 296 300 300 300 299 299 298 299 296 292 291 292 291 291 291 292 292 290 289 289 289
302 296 295 296 297 296 296 298 298 296 296 295 295 295 297 296 300 300 298 300 299 299 297 299 296 299 298 296 296 296 297 293 292 292 291 290 290 290 290 290 290 290 290 289
298 296 295 295 294 295 297 298 297 296 295 294 295 296 297 296 297 300 298 300 298 300 294 297 296 296 295 294 295 293 291 291 290 291 291 291 291 291 290 290 290 290 290 290
298 294 293 295 295 296 296 293 295 289 291 295 295 297 295 294 296 298 298 299 299 295 298 297 295 295 293 293 293 291 291 291 291 291 292 291 291 291 290 290 291 291 290 290
295 296 295 298 293 292 291 290 288 290 291 293 292 293 295 295 297 299 299 298 296 298 298 295 293 293 292 292 293 292 290 290 290 288 290 290 289 290 290 290 290 290 289 289
295 295 296 294 290 285 286 283 288 290 292 293 294 293 293 295 297 297 298 297 297 296 295 295 293 293 292 291 291 291 292 290 288 291 289 289 290 289 288 290 290 289 289 288
292 292 292 291 287 285 285 289 291 291 293 293 294 294 296 297 297 298 298 297 294 294 294 293 289 290 291 291 291 291 292 292 292 292 291 291 290 289 288 289 289 289 288 288
292 292 291 290 289 291 290 292 292 293 295 295 294 294 295 291 297 296 294 295 294 294 292 290 290 290 290 290 290 290 291 290 290 291 291 290 290 290 288 286 288 289 288 288

GFSNW_925_thetae_144.txt.gz
Theta_e
307 307 307 305 304 305 309 308 304 308 307 306 302 306 308 309 310 309 310 309 310 309 308 309 310 311 308 307 309 309 308 308 306 307 308 308 307 306 305 305 305 304 303 304
307 307 307 306 305 305 305 308 305 309 307 304 303 308 310 310 311 310 310 310 309 309 310 310 310 310 308 307 309 310 308 307 304 304 305 306 308 308 307 304 303 304 302 302
307 307 307 307 303 304 304 304 306 307 301 301 305 307 310 309 309 310 309 310 309 309 309 308 311 311 309 308 309 309 306 305 304 303 305 306 306 307 307 306 304 305 302 304
306 307 306 306 307 304 308 302 303 305 307 306 306 307 309 310 309 309 309 309 310 310 309 309 311 310 310 309 309 308 306 303 305 305 305 307 306 306 306 307 306 305 302 303
307 307 307 306 307 308 308 305 306 301 303 304 307 307 308 309 309 308 309 309 309 308 308 307 308 309 308 308 309 309 305 303 307 302 306 305 306 304 303 305 306 305 304 304
307 306 307 306 307 307 308 305 304 303 303 304 304 305 308 308 307 308 308 308 307 308 308 306 305 304 304 306 307 307 307 305 303 304 305 304 301 302 304 303 302 305 306 306
306 306 306 306 306 306 307 304 303 305 309 304 304 307 308 308 308 308 307 307 307 306 304 304 303 303 304 305 305 304 306 305 302 302 302 299 300 303 303 303 303 302 304 304
306 306 306 306 306 306 305 304 305 305 310 304 306 307 307 307 306 307 307 306 304 302 304 303 304 303 303 304 302 304 303 304 304 304 303 302 304 303 302 304 304 302 303 302
306 306 306 306 306 305 306 304 305 303 307 307 304 306 306 305 304 304 306 304 303 303 303 303 304 305 304 306 305 301 304 303 304 304 307 306 304 304 303 303 304 302 302 301
306 306 306 307 306 305 306 304 304 305 305 304 303 303 304 303 303 304 305 305 304 302 302 305 304 305 302 306 305 304 305 305 307 305 305 306 303 303 303 306 306 302 301 300
306 306 306 307 306 306 305 305 304 304 303 302 302 301 304 302 302 304 302 304 303 303 304 303 304 304 303 302 302 303 305 304 305 305 307 307 302 303 304 302 301 300 299 299
306 306 306 306 307 305 305 307 304 303 301 301 302 300 300 301 301 302 301 304 304 302 302 303 302 304 301 301 304 301 304 303 304 305 306 302 301 303 301 299 300 299 299 298
305 306 306 306 306 306 305 304 303 304 300 299 300 300 299 300 300 300 303 301 301 302 300 302 303 305 300 304 302 303 302 301 304 305 305 303 302 300 299 299 299 298 298 297
305 306 307 306 306 306 305 304 303 302 300 301 300 298 298 298 298 299 300 300 301 300 299 301 302 304 301 304 303 303 304 301 302 302 301 302 302 298 298 297 296 296 295 295
306 306 307 307 306 306 305 304 303 302 302 302 301 297 297 297 298 299 299 300 299 299 300 297 303 301 303 300 301 303 303 303 303 306 302 302 302 298 296 296 295 294 294 293
307 306 306 308 307 306 304 301 302 301 302 297 298 296 296 297 297 298 298 298 297 297 299 299 299 298 301 301 301 303 303 301 301 304 301 300 298 296 295 295 294 293 292 292
307 306 306 308 308 306 303 302 302 301 301 299 296 295 295 296 296 296 296 296 295 296 297 298 298 299 299 298 302 304 303 301 300 298 296 298 296 296 293 293 292 294 292 292
307 306 306 309 307 304 302 301 301 300 301 298 292 292 294 295 297 298 295 296 294 296 297 297 299 298 298 302 301 301 301 300 299 297 296 298 294 292 291 291 291 291 291 290
307 306 307 303 303 301 301 300 299 300 300 296 291 292 294 293 295 295 296 296 299 295 300 299 300 301 302 302 301 300 299 300 299 295 293 293 293 291 291 291 291 291 290 289
307 306 302 299 299 300 300 299 298 297 297 296 294 291 297 293 294 296 296 295 298 295 297 296 300 301 299 299 297 296 297 298 294 291 292 291 291 290 291 291 290 289 289 289
304 297 295 297 298 298 297 298 299 298 298 297 294 294 296 294 295 297 297 297 296 297 295 299 298 298 298 295 295 295 295 296 292 293 292 291 290 290 290 289 290 290 289 289
301 298 296 297 295 295 298 297 297 296 296 293 294 296 294 293 296 298 298 299 297 295 292 298 296 294 295 293 294 292 292 291 291 291 290 290 290 290 290 290 289 290 290 290
299 295 294 295 295 297 298 294 295 291 290 291 293 297 294 293 295 297 297 298 296 292 298 296 293 294 293 293 292 291 290 291 290 290 291 291 291 291 290 289 290 290 289 290
297 297 296 299 294 293 292 291 290 289 290 293 291 292 293 293 295 297 296 296 295 298 298 294 289 293 292 291 292 290 290 290 290 288 290 290 290 290 290 290 290 289 288 289
296 296 300 295 289 287 285 282 290 289 292 292 292 292 292 292 295 297 298 296 298 297 292 292 289 292 291 290 291 291 291 290 288 290 289 289 289 288 289 290 291 289 288 288
293 292 290 290 287 288 283 288 295 290 292 291 292 293 293 293 297 295 296 297 293 292 289 290 289 290 289 289 290 290 291 291 291 291 290 290 289 289 289 289 289 289 288 288
292 288 289 289 287 290 290 292 292 292 294 294 293 292 294 292 291 293 292 293 292 293 291 288 289 289 289 288 289 290 290 290 290 289 289 289 290 288 288 284 288 288 288 287

GFSNW_925_thetae_147.txt.gz
Theta_e
307 307 307 306 305 304 309 307 302 308 308 304 300 305 308 308 309 308 309 308 309 308 308 308 309 310 308 306 308 308 307 305 304 306 307 307 305 306 305 305 305 303 302 304
307 307 306 307 304 304 304 305 304 309 306 303 302 307 309 309 310 309 309 309 309 308 309 310 310 309 308 307 308 308 306 305 303 303 303 305 308 307 303 301 302 303 302 302
306 306 306 306 306 305 305 303 305 303 300 299 304 307 308 309 308 309 308 309 308 308 308 306 310 310 309 308 308 309 305 303 303 303 304 304 307 305 306 305 304 304 301 302
307 306 306 306 307 306 307 299 302 304 305 305 305 306 308 309 308 308 307 309 309 308 308 308 310 310 309 308 309 307 303 303 303 304 303 306 306 305 305 306 305 305 304 301
307 306 306 306 306 308 306 303 304 299 302 303 306 305 308 308 308 308 308 308 308 307 307 306 307 309 307 307 307 307 303 303 306 302 305 305 305 304 303 304 306 305 305 304
306 306 306 306 306 307 306 304 303 302 302 302 303 304 307 308 306 307 307 307 306 308 307 305 304 304 303 305 306 306 305 304 302 302 303 302 300 301 304 303 302 304 305 304
306 306 306 306 306 306 306 304 303 304 308 303 302 306 307 307 307 307 307 306 306 305 302 302 302 300 303 304 303 303 304 303 301 301 300 298 300 300 301 302 302 301 302 303
306 306 306 306 305 306 305 304 304 304 308 303 305 307 307 306 305 306 306 305 303 301 302 302 303 301 303 303 302 303 302 303 303 303 301 301 304 302 302 303 303 301 302 301
306 306 306 306 305 305 305 304 304 303 306 305 303 305 305 304 303 304 305 303 302 301 301 301 305 304 303 305 305 301 302 301 303 303 306 306 302 304 303 303 303 302 300 300
305 306 305 306 306 305 306 304 304 305 305 303 302 302 304 302 302 303 304 304 304 301 302 304 303 303 302 305 305 305 305 305 306 305 305 305 302 302 302 306 306 302 300 299
305 306 305 306 306 305 304 305 303 303 302 302 302 302 302 301 301 304 302 303 302 302 303 303 302 303 302 302 302 303 305 305 305 305 307 307 301 302 304 302 300 300 299 298
305 305 306 305 306 306 304 306 304 303 300 300 301 300 300 301 301 301 300 303 302 302 302 301 301 304 300 300 304 300 303 303 303 305 306 302 300 300 300 299 300 299 299 298
306 305 306 305 306 306 305 304 303 303 299 299 300 300 300 300 300 300 303 300 300 300 298 300 302 305 300 303 301 302 301 299 303 304 304 302 301 300 299 298 299 298 298 297
307 305 306 306 306 305 306 304 304 302 299 301 300 298 298 298 298 299 300 300 300 299 298 301 302 304 300 302 302 301 303 300 301 301 301 300 299 299 298 298 297 296 296 296
308 306 305 306 307 306 306 305 304 303 302 301 300 298 297 297 297 298 299 299 298 298 300 297 302 299 301 299 299 302 302 303 302 304 302 301 301 300 297 297 296 295 295 294
309 307 306 306 307 306 305 301 302 303 302 295 299 295 295 297 297 298 297 297 296 296 298 298 297 297 300 300 300 301 302 302 301 303 300 298 298 296 296 296 295 294 293 292
311 307 306 306 307 307 304 302 302 301 301 297 296 294 293 295 296 296 296 296 294 296 297 297 296 297 298 298 301 302 302 301 299 298 297 298 296 298 294 294 293 294 292 291
310 308 307 306 307 305 304 304 301 301 301 296 293 292 293 295 295 297 294 296 294 295 296 295 297 296 296 300 299 299 300 298 299 298 296 296 295 292 291 291 292 291 290 290
308 308 307 306 304 302 302 302 300 300 300 299 291 293 294 292 294 294 295 295 298 293 298 298 299 299 302 301 300 300 298 298 298 297 294 294 294 291 291 291 290 290 290 289
307 307 305 301 300 301 300 299 299 298 298 296 298 292 296 294 293 295 294 293 295 298 297 294 300 302 299 298 296 294 295 296 295 292 293 292 291 291 290 290 290 289 289 289
305 298 296 298 299 299 299 299 300 299 299 298 297 293 296 293 296 297 295 294 294 291 293 296 298 297 296 294 292 293 292 292 294 293 294 292 291 290 290 289 289 290 290 289
300 298 297 298 295 296 300 300 297 297 299 295 297 296 295 293 295 297 298 297 296 297 291 297 297 293 293 292 292 290 289 292 291 291 290 290 290 290 289 289 290 290 290 290
299 295 294 296 296 298 300 296 295 296 291 292 295 297 295 294 296 298 295 297 296 292 297 298 291 291 292 290 290 289 289 290 290 289 290 290 290 290 290 289 290 289 289 289
298 298 297 299 296 296 294 292 291 290 290 292 291 292 293 292 294 294 293 295 295 294 298 293 287 291 291 290 291 289 290 289 289 287 289 290 290 290 290 290 290 289 288 289
297 297 301 297 291 287 283 283 290 290 293 292 291 289 291 294 295 296 295 294 298 298 293 289 286 290 289 290 291 291 291 289 286 289 289 290 289 288 288 289 289 289 288 288
293 293 293 291 289 290 290 290 293 291 294 291 291 293 294 296 293 293 297 292 291 291 287 288 287 289 288 288 289 289 290 290 290 290 289 289 289 288 288 288 289 289 288 287
293 288 288 288 288 290 291 294 294 292 293 292 292 291 295 291 289 292 289 290 290 288 288 286 288 288 288 288 289 289 290 289 289 289 289 289 289 288 287 284 287 288 287 287